COSMOS 252 DEB *, 3690

Orbit data source: Space-Track

COSMOS 252 DEB *, 3690 is space debris in LEO originally from a launch on Fri, 01 Nov 1968 UTC launched from the Tyuratam Missile And Space Complex (TTMTR). Debris objects in space refer to the collection of defunct objects orbiting the Earth. Examples of debris include non-operational satellites, rocket bodies, and fragments generated from explosions, collisions, or faulty payload assembly.

Loading next visibility...
Identifier
3690, 1968-097AH
Orbit
LEO
Country
Flag of CISCIS
Related business
Manufacturer
Unknown
Mission
Spacecraft
Bus & Motor
Unknown
Mass
Unknown
Launch date (UTC)
1968-11-01 (58 years ago)
Launch vehicle
Unknown
Launch site
Tyuratam Missile And Space Complex (TTMTR)
Object type
Payload
Rocket body
Debris
Shape & HBR
Unknown shape, 0.1 m
Radar Cross Section
Small (<0.1 m²)

Expand to show TLE details & history
Last TLE update: 17 hours ago

TLE from 17 hours ago
0 COSMOS 252 DEB *
1 03690U 68097AH  26124.43130790  .00000289  00000-0  37774-3 0  9990
2 03690  62.3479 134.1060 0763119 248.0929 103.7282 12.90646813666525
Epoch: 2026-05-04T10:21Z
TLE epoch observation values (Epoch: 2026-05-04T10:21:05.002Z)
Latitude
-0.00002°
Longitude
116.51454°
Altitude
1,480.553 km
Speed
7.04 km/s
True Right ascension
08h 56m 25s
True Declination
0° 00' 00"
Sunlit
Object was in daylight at epoch
Visualization orbit readout
Latitude
Unknown
Longitude
Unknown
Altitude
Unknown
Speed
Unknown
Apparent Right ascension
Unknown
Apparent Declination
Unknown
Sunlit
N/A
Visualization observer readout
Local Sidereal Time
11:13:20
Azimuth
Unknown
Elevation
Unknown
Doppler factor
Unknown
Orbital elements
Apogee altitude
1,883.715 km
Perigee altitude
712.163 km
Semi-major axis
7,676.076 km
Eccentricity
0.07631
Inclination
62.3479°
RAAN
134.106°
Arg. of periapsis
248.0929°
True anomaly
112.00607°
Mean anomaly
103.7282°
Eccentric anomaly
107.88916°
Mean motion
3.22726 °/min
Orbital period
111.55 mins
BSTAR
0.00037774
Loading maneuver chart data...
Computing Atmospheric mass density...
Loading historical data...
Loading historical data...
Loading historical data...
Loading historical data...
Loading historical data...
Loading historical data...
Loading historical data...

Documentation

Showing up to 5 results
|